GW4980 Weather Reports


time (UTC)temp
C
wind
direction
speed
KPH
gust
KPH
rain 1hr
cm
rain 24hr
cm
rain mn
cm
humidity
%
barometer
mb
20260507165614 15 19 1.6 1.6 0.00 0.00 0.00 48 997.0
20260507164615 15 236 3.2 4.8 0.00 0.00 0.00 46 997.1
20260507163615 15 280 1.6 1.6 0.00 0.00 0.00 50 997.3
20260507162528 15 29 8.0 9.7 0.00 0.00 0.00 43 997.4
20260507161547 15 39 3.2 4.8 0.00 0.00 0.00 44 997.5
20260507160553 15 339 3.2 3.2 0.00 0.00 0.00 52 997.6
20260507155544 14 320 3.2 4.8 0.00 0.00 0.00 50 997.8
20260507154605 14 74 4.8 8.0 0.00 0.00 0.00 50 998.0
20260507153537 14 30 1.6 1.6 0.00 0.00 0.00 47 998.0
20260507152414 14 340 3.2 3.2 0.00 0.00 0.00 46 998.2
20260507151416 15 21 4.8 4.8 0.00 0.00 0.00 44 998.3
20260507150445 15 31 3.2 4.8 0.00 0.00 0.00 41 998.4
20260507145505 15 121 4.8 8.0 0.00 0.00 0.00 41 998.8
20260507144443 15 45 3.2 4.8 0.00 0.00 0.00 46 998.9
20260507143445 15 355 3.2 4.8 0.00 0.00 0.00 43 998.9
20260507142455 15 34 3.2 4.8 0.00 0.00 0.00 45 999.0
20260507141414 15 334 1.6 3.2 0.00 0.00 0.00 51 999.1
20260507140344 14 3 3.2 8.0 0.00 0.00 0.00 50 999.3
20260507135345 13 5 1.6 3.2 0.00 0.00 0.00 50 999.4
20260507134335 13 20 3.2 4.8 0.00 0.00 0.00 49 999.4
20260507133246 12 29 3.2 3.2 0.00 0.00 0.00 51 999.6
20260507132215 12 13 3.2 3.2 0.00 0.00 0.00 52 999.5
20260507131144 12 21 1.6 1.6 0.00 0.00 0.00 53 999.7
20260507130115 12 9 3.2 3.2 0.00 0.00 0.00 54 999.8
20260507125043 11 348 1.6 1.6 0.00 0.00 0.00 56 999.9
20260507124015 11 0.0 0.0 0.00 0.00 0.00 57 999.9
20260507122945 11 350 1.6 3.2 0.00 0.00 0.00 54 999.6
20260507121915 11 0.0 0.0 0.00 0.00 0.00 56 999.6
20260507120845 11 3 3.2 4.8 0.00 0.00 0.00 58 999.6
20260507115835 11 342 3.2 4.8 0.00 0.00 0.00 58 999.5
20260507114744 11 22 1.6 3.2 0.00 0.00 0.00 58 999.6
20260507113717 11 2 0.0 1.6 0.00 0.00 0.00 59 999.5
20260507112644 11 349 1.6 1.6 0.00 0.00 0.00 56 999.5
20260507111614 11 0.0 0.0 0.00 0.00 0.00 58 999.4
20260507110546 11 0.0 0.0 0.00 0.00 0.00 59 999.3
20260507105515 11 0.0 0.0 0.00 0.00 0.00 60 999.1
20260507104445 11 0.0 0.0 0.00 0.00 0.00 64 999.2
20260507103414 11 0.0 0.0 0.00 0.00 0.00 60 999.0
20260507102344 11 355 0.0 1.6 0.00 0.00 0.00 60 998.9
20260507101335 11 355 1.6 1.6 0.00 0.00 0.00 62 998.9
20260507100246 11 355 1.6 3.2 0.00 0.00 0.00 63 998.5
20260507095214 11 355 0.0 1.6 0.00 0.00 0.00 61 998.4
20260507094146 11 9 3.2 8.0 0.00 0.00 0.00 61 998.4
20260507093114 11 6 1.6 1.6 0.00 0.00 0.00 60 998.5
20260507092045 11 7 3.2 4.8 0.00 0.00 0.00 61 998.5
20260507091014 11 342 1.6 1.6 0.00 0.00 0.00 59 998.7
20260507090005 11 5 1.6 3.2 0.00 0.00 0.00 60 998.4
20260507084915 11 26 0.0 1.6 0.00 0.00 0.00 60 998.6
20260507083843 11 30 1.6 1.6 0.00 0.00 0.00 60 998.5
20260507082815 11 22 1.6 3.2 0.00 0.00 0.00 63 998.3
20260507081745 12 353 1.6 1.6 0.00 0.00 0.00 66 998.3
20260507080734 12 354 1.6 3.2 0.00 0.00 0.00 67 998.1
20260507075644 12 349 1.6 3.2 0.00 0.00 0.00 69 997.9
20260507074615 12 5 1.6 3.2 0.00 0.00 0.00 68 997.9
20260507073555 12 7 1.6 3.2 0.00 0.00 0.00 68 997.6
20260507072415 12 356 3.2 3.2 0.00 0.00 0.00 68 997.8
20260507071415 12 16 1.6 3.2 0.00 0.00 0.00 69 997.9
20260507070416 12 20 3.2 4.8 0.00 0.00 0.00 70 997.9
20260507065437 12 342 1.6 3.2 0.00 0.00 0.00 70 998.0
20260507064415 12 44 1.6 3.2 0.00 0.00 0.00 70 998.0
20260507063316 12 3 1.6 1.6 0.00 0.00 0.00 69 998.2
20260507062315 12 0.0 0.0 0.00 0.00 0.00 71 998.1
20260507061334 12 26 1.6 3.2 0.00 0.00 0.00 70 998.1
20260507060318 12 0.0 0.0 0.00 0.00 0.00 69 998.4
20260507055314 12 32 1.6 1.6 0.00 0.00 0.00 70 998.3
20260507054216 12 15 1.6 1.6 0.00 0.00 0.00 70 998.1
20260507053237 12 355 1.6 1.6 0.00 0.00 0.00 72 998.0
20260507052234 12 353 3.2 4.8 0.00 0.00 0.00 72 997.9
20260507051114 12 332 1.6 1.6 0.00 0.00 0.00 72 998.1
20260507050205 12 18 1.6 3.2 0.00 0.00 0.00 72 997.9
20260507045145 13 31 1.6 1.6 0.00 0.00 0.00 73 997.9
20260507044145 13 3 3.2 3.2 0.00 0.00 0.00 72 997.7
20260507043122 13 25 3.2 4.8 0.00 0.00 0.00 74 997.9
20260507042144 13 19 0.0 1.6 0.00 0.00 0.00 75 997.8
20260507041115 13 24 3.2 4.8 0.00 0.00 0.00 76 997.8
20260507040053 13 0.0 0.0 0.00 0.00 0.00 76 997.9
20260507035047 13 42 1.6 1.6 0.00 0.00 0.00 76 998.2
20260507034045 13 32 1.6 1.6 0.00 0.00 0.00 76 997.8
20260507033016 13 132 3.2 3.2 0.00 0.00 0.00 75 997.4
20260507031918 13 84 1.6 1.6 0.00 0.00 0.00 75 997.7
20260507030814 13 78 0.0 1.6 0.00 0.00 0.00 75 997.9
20260507025715 13 4 0.0 1.6 0.00 0.00 0.00 76 997.8
20260507024705 13 68 1.6 3.2 0.00 0.00 0.00 78 998.0
20260507023616 13 51 3.2 3.2 0.00 0.00 0.00 78 997.6
20260507022515 13 346 3.2 3.2 0.00 0.00 0.00 78 997.1
20260507021517 13 88 6.4 9.7 0.00 0.00 0.00 78 997.1
20260507020447 13 29 3.2 8.0 0.00 0.00 0.00 79 996.9
20260507015444 14 5 3.2 4.8 0.00 0.00 0.00 79 997.0
20260507014417 14 321 3.2 3.2 0.00 0.00 0.00 78 996.8
20260507013345 14 345 4.8 8.0 0.00 0.00 0.00 77 997.0
20260507012315 15 6 4.8 4.8 0.00 0.00 0.00 76 996.8
20260507011215 15 14 4.8 4.8 0.00 0.00 0.00 76 996.8
20260507010216 15 27 0.0 1.6 0.00 0.00 0.00 76 996.6
20260507005246 15 51 3.2 4.8 0.00 0.00 0.00 76 996.8
20260507004244 15 358 1.6 3.2 0.00 0.00 0.00 75 997.4
20260507003215 15 303 1.6 1.6 0.00 0.00 0.00 75 996.8
20260507002246 16 340 4.8 9.7 0.00 0.00 0.00 75 996.4
20260507001213 16 18 1.6 3.2 0.00 0.00 0.00 77 996.4
20260507000212 16 329 1.6 3.2 0.00 0.00 0.00 78 996.3
20260506235116 16 323 3.2 3.2 0.00 0.00 0.00 76 995.9
20260506234045 16 345 1.6 3.2 0.00 0.00 0.00 78 995.9
20260506233027 16 359 1.6 3.2 0.00 0.00 0.00 79 995.7
20260506231947 16 351 1.6 4.8 0.00 0.00 0.00 80 995.3
20260506231017 17 304 1.6 1.6 0.00 0.00 0.00 80 995.3
20260506225847 17 333 1.6 3.2 0.00 0.00 0.00 83 995.2
20260506224816 17 349 3.2 4.8 0.00 0.00 0.00 85 995.4
20260506223805 17 353 1.6 3.2 0.00 0.00 0.00 84 995.4
20260506222714 17 1 1.6 1.6 0.00 0.00 0.00 84 995.3
20260506221646 17 64 0.0 1.6 0.00 0.00 0.00 83 994.9
20260506220637 17 64 1.6 3.2 0.00 0.00 0.00 85 994.9
20260506215545 18 68 0.0 1.6 0.00 0.00 0.00 86 995.0
20260506214514 18 68 1.6 1.6 0.00 0.00 0.00 87 994.7
20260506213444 18 71 3.2 3.2 0.00 0.00 0.00 88 994.5
20260506212414 18 75 1.6 3.2 0.00 0.00 0.00 88 994.7
20260506211345 18 75 1.6 1.6 0.00 0.00 0.00 88 994.6
20260506210336 18 96 0.0 1.6 0.00 0.00 0.00 87 994.4
20260506205245 18 0.0 0.0 0.00 0.00 0.00 85 994.0
20260506204215 19 137 0.0 1.6 0.00 0.00 0.00 85 993.8
20260506203256 19 137 1.6 1.6 0.00 0.00 0.00 84 993.8
20260506202245 19 137 1.6 1.6 0.00 0.00 0.00 84 993.8
20260506201215 19 137 1.6 1.6 0.00 0.00 0.00 83 994.0
20260506200144 19 140 1.6 1.6 0.00 0.00 0.00 83 993.8
20260506195158 19 0.0 0.0 0.00 0.00 0.00 83 993.8
20260506194045 19 162 1.6 1.6 0.00 0.00 0.00 84 993.7
20260506193014 19 0.0 0.0 0.00 0.00 0.00 83 993.8
20260506191945 19 162 1.6 1.6 0.00 0.00 0.00 83 994.1
20260506190916 19 202 1.6 3.2 0.00 0.00 0.00 82 993.7
20260506185844 20 225 4.8 8.0 0.00 0.00 0.00 83 993.8
20260506184815 20 234 3.2 3.2 0.00 0.00 0.00 83 994.0
20260506183744 20 243 4.8 8.0 0.00 0.00 0.00 86 994.0
20260506182714 18 257 1.6 1.6 0.00 0.00 0.00 85 994.4
20260506181645 18 243 3.2 8.0 0.00 0.00 0.00 86 994.5
20260506180616 18 0.0 0.0 0.00 0.00 0.00 84 994.6
20260506175545 18 0.0 0.0 0.00 0.00 0.00 84 994.3
20260506174515 18 219 6.4 8.0 0.00 0.00 0.00 83 994.3
20260506173445 18 245 4.8 4.8 0.00 0.00 0.00 82 994.7
20260506172446 18 258 6.4 11.3 0.00 0.00 0.00 80 994.4
20260506171509 19 190 14.5 17.7 0.00 0.00 0.00 78 994.1
20260506170444 19 230 4.8 8.0 0.00 0.00 0.00 78 993.9